Regional Weather Roundup
Issued by NWS

Home | Current Version | Previous Version | Text Only | Print | Product List | Glossary On
Versions: 1 2 3 4 5 6 7 8 9 10 11 12 13 14 15 16 17 18 19 20 21 22 23 24 25 26 27 28 29 30 31 32 33 34 35 36 37 38 39 40 41 42 43 44 45 46 47 48 49 50
000
ASUS44 KEWX 050511
RWRTX
SOUTH TEXAS REGIONAL WEATHER ROUNDUP
NATIONAL WEATHER SERVICE AUSTIN/SAN ANTONIO TX
1200 AM CDT SAT SEP 05 2015

NOTE: "FAIR" INDICATED FEW OR NO CLOUDS BELOW 12,000 FEET WITH NO
SIGNIFICANT WEATHER AND/OR OBSTRUCTIONS TO VISIBILITY.

* - THESE STATIONS ARE NOT NWS OR FAA STATIONS...AND ARE NOT SUBJECT
    TO NWS AND FAA QUALITY CONTROL.

TXZ171-172-183>190-050600-
TEXAS HILL COUNTRY AND EDWARDS PLATEAU

CITY           SKY/WX    TMP DP  RH WIND       PRES   REMARKS
JUNCTION       CLEAR     82  68  62 SE8       29.97R
*LLANO         CLEAR     82  70  65 S6        29.99S
BURNET         CLEAR     81  70  69 S8        29.98F
*HORSESHOE BAY CLEAR     80  72  74 S7        29.95F
*KERRVILLE     CLEAR     78  72  82 S5        29.99R
*FREDERICKSBRG CLEAR     77  69  76 S3        29.99S
*ROCKSPRINGS   CLEAR     79  68  69 SE10      30.02S
*BOERNE STAGE  PTCLDY    77  70  78 S7G17     29.99S
*CASTROVILLE   CLEAR     81  71  72 SE9       29.96S
HONDO          PTCLDY    81  74  79 SE13      29.96R
*UVALDE        CLEAR     82  73  72 SE13      29.94R
DEL RIO        CLEAR     87  69  54 E14G20    29.88S HX  91
LAUGHLIN AFB   CLEAR     86  71  60 SE15G23   29.90R HX  90
CARRIZO SPRGS  CLEAR     84  72  65 SE15G22   29.89S
*EAGLE PASS      N/A    N/A N/A N/A MISG        N/A
$$

TXZ173-191>194-202-209-217>225-228-050600-
CENTRAL AND SOUTH CENTRAL TEXAS

CITY           SKY/WX    TMP DP  RH WIND       PRES   REMARKS
GEORGETOWN     CLEAR     82  70  65 S7        29.96S
AUSTIN/BERGSTM PTCLDY    78  72  81 S6        29.94F
AUSTIN/MABRY   CLEAR     81  73  76 VRB5      29.96S
*AUSTIN/EXEC   MOCLDY    79  73  83 CALM      29.96S
*LAGO VISTA    CLEAR     80  72  75 S8        29.98S
SAN MARCOS     CLEAR     79  73  83 S7        29.96S
NEW BRAUNFELS  CLEAR     80  74  81 S7        29.94S
RANDOLPH AFB   CLEAR     78  74  86 SE7       29.95S
PT SAN ANTONIO CLEAR     81  74  79 SE9       29.94R
SAN ANTONIO    PTCLDY    81  73  76 SE13      29.96R
STINSON FIELD  CLEAR     81  74  79 SE12      29.93R
*PLEASANTON    MOCLDY    80  73  80 SE6       29.94R
*LA GRANGE     CLEAR     80  77  92 S3        29.93S
*GIDDINGS      CLEAR     78  73  84 S3        29.99S
*GONZALES      CLEAR     79  77  92 S6        29.94R
$$

TXZ163>164-176>182-195>201-210>213-226-227-235-050600-
SOUTHEAST TEXAS

CITY           SKY/WX    TMP DP  RH WIND       PRES   REMARKS
COLLEGE STN    CLEAR     80  74  81 S8        29.95S
*BRYAN         CLEAR     78  75  88 SE6       29.97R
*CALDWELL      CLEAR     79  79 100 SE6       29.98S
*CROCKETT      CLEAR     77  73  88 CALM      29.99S
*BRENHAM       CLEAR     79  77  93 SE3       29.95S
HUNTSVILLE     CLEAR     80  74  81 S6        29.96S
CONROE         CLEAR     78  74  87 SE3       29.96F
HOUSTON BUSH   PTCLDY    78  75  90 S5        29.95S
HOUSTON HOBBY  PTCLDY    79  76  90 S5        29.95S
*HOUSTON SW AP CLEAR     76  75  96 CALM      29.96S
PEARLAND       CLEAR     80  76  87 CALM      29.96F
HOUSTON HOOKS  CLEAR     79  75  87 S3        29.95F
ELLINGTON FLD  PTCLDY    81  75  83 CALM      29.97S
SUGAR LAND     CLEAR     79  76  90 S7        29.95S
*HOUSTON EXEC  CLEAR     77  75  94 S5        29.96S
*CLEVELAND MUN CLEAR     75  74  98 CALM      29.97S FOG
*WHARTON       CLEAR     77  75  95 E5        29.96R
*COLUMBUS      FAIR      77  76  96 SE3       29.94S
*EAGLE LAKE    CLEAR     78  77  97 S3        29.94S
$$

TXZ214>216-236>238-050600-
THE UPPER TEXAS COAST

CITY           SKY/WX    TMP DP  RH WIND       PRES   REMARKS
*ORANGE        CLEAR    N/A N/A N/A CALM      29.98S
PORT ARTHUR    CLEAR     77  76  96 CALM      29.95F
GALVESTON      PTCLDY    84  78  82 S9        29.96F HX  95
ANGLETON       CLEAR     79  77  94 CALM      29.95S
*BAY CITY      CLEAR     79  79  99 SE3       29.95R
PALACIOS       CLEAR     82  79  90 SE9       29.94S HX  92
$$

TXZ229>234-239>247-050600-
TEXAS COASTAL BEND AND RIO GRANDE PLAINS

CITY           SKY/WX    TMP DP  RH WIND       PRES   REMARKS
VICTORIA       CLEAR     78  78 100 SE6       29.94S
*BEEVILLE      PTCLDY    78  78  99 SE3       29.93S
ROCKPORT       PTCLDY    84  78  82 SE12      29.91F HX  95
*PORT ARANSAS  MOCLDY    83  78  85 SE12      29.92S HX  94
*PORT LAVACA   NOT AVBL
*INGLESIDE     CLEAR     84  78  81 SE9       29.92S HX  95
CORPUS CHRISTI PTCLDY    82  77  84 SE10      29.92S HX  90
CORPUS NAS     PTCLDY    83  78  85 SE13      29.92S HX  93
*ROBSTOWN      CLEAR     81  78  91 SE5       29.92S HX  90
ALICE          CLEAR     79  77  94 S7        29.92S
KINGSVILLE NAS CLEAR     82  81  96 SE8       29.92S HX  95
COTULLA        CLEAR     82  75  79 SE15      29.91S
*FAITH RANCH   CLOUDY    86  72  62 SE14      29.90S HX  92
LAREDO         CLEAR     85  75  71 SE13      29.93R HX  93
$$

TXZ248>255-050600-
DEEP SOUTH TEXAS

CITY           SKY/WX    TMP DP  RH WIND       PRES   REMARKS
BROWNSVILLE    PTCLDY    83  79  88 SE8       29.93R HX  94
PORT ISABEL    CLEAR     85  81  88 SE12      29.92S HX 100
*SOUTH PADRE     N/A     84  81  89 SE12      29.93R HX  98
HARLINGEN      CLEAR     82  80  94 SE10      29.91S HX  94
*HEBBRONVILLE  NOT AVBL
MCALLEN        CLEAR     82  77  84 SE8       29.92R HX  90
*WESLACO       CLEAR     81  76  85 SE6       29.91S
FALFURRIAS     CLEAR     81  76  87 SE7       29.92S
EDINBURG       CLEAR     81  75  83 SE5       29.92S
*ZAPATA        CLEAR     84  71  63 SE13G20   29.91R
$$

TXZ213>215-236>238-242>244-246-247-251-254-255-050600-
CMAN STATIONS

STATION/POSITION TIME  TEMP    WIND        PRES    WAVE
                       AIR SEA DIR/SP/G            HT/PER
                 (UTC) (F)     (DEG/KT/KT) (MB)    (FT/S)
SABINE PASS      0400   81 85  210/  4/  5 1014.9
SEA RIM ST PARK  0500   83     200/  7/ 10 1015.1
NORTH JETTY/GLS  0400   84 84  210/ 10/ 10   N/A
EAGLE POINT      0400   84 81  180/  7/  9 1014.5
MORGANS POINT    0400   83 81  160/  4/  7 1014.5
MISSION/ARANSAS  0400   85                 1014.0
PORT O`CONNOR    0400          140/ 13/ 16   N/A
PORT ARANSAS     0500   85 86  140/ 17/ 19 1013.7
MALAQUITE BEACH  0400   85 87  130/ 18/ 21 1012.9
BAFFIN BAY       0400   85     140/ 14/ 18 1012.9
PORT ISABEL      0400   84 85  120/ 12/ 14 1013.2
$$

GMZ080-GMZ150>470-050600-
OFFSHORE BUOY REPORTS

STATION/POSITION TIME  TEMP    WIND        PRES    WAVE
                       AIR SEA DIR/SP/G            HT/PER
                 (UTC) (F)     (DEG/KT/KT) (MB)    (FT/S)
20 E GALVESTON   0450   85 85  170/ 10/ 12 1014.5    2/ 6
90 E PT ARANSAS  0450   85 85  160/ 12/ 14 1013.9    3/ 6
35 NE PT MANSFLD 0450   85 85  150/ 14/ 17 1013.0    3/ 6
200 E PT ISABEL  0450   85 85  130/ 12/ 14 1015.0    2/ 6
$$



USA.gov is the U.S. government's official web portal to all federal, state and local government web resources and services.